Location: Newark
(17.9939°S, 31.0481°E)
Time: 23:29:08
(UTC+00:00)

Explorer 11/Cluster Stage 4 - All Passes

Search period start: 15 November 2019 00:00
Search period end: 25 November 2019 00:00
Orbit: 467 x 1259 km, 28.8° (Epoch: 14 November)

Date Brightness Start Highest point End Pass type
(mag) Time Alt. Az. Time Alt. Az. Time Alt. Az.
15 Nov - 04:16:09 10° NW 04:21:51 32° NNE 04:26:34 10° E daylight
15 Nov - 06:04:55 10° WNW 06:10:32 72° SSW 06:15:01 10° ESE daylight
15 Nov - 07:55:28 10° WSW 07:59:10 24° SSW 08:02:26 10° SE daylight
15 Nov - 09:45:44 10° SW 09:48:12 16° S 09:50:33 10° SE daylight
15 Nov - 11:33:47 10° SW 11:37:02 30° SSE 11:40:25 10° E daylight
15 Nov - 13:21:37 10° WSW 13:25:18 55° NNW 13:29:35 10° NE daylight
15 Nov - 15:12:08 10° NW 15:13:46 12° NNW 15:15:29 10° N daylight
16 Nov - 02:19:27 10° N 02:22:03 12° NNE 02:24:29 10° NE visible
16 Nov - 04:04:56 10° NW 04:11:13 40° NNE 04:16:19 10° E daylight
16 Nov - 05:54:09 10° WNW 05:59:57 62° SSW 06:04:34 10° ESE daylight
16 Nov - 07:44:57 10° WSW 07:48:43 23° SSW 07:52:00 10° SE daylight
16 Nov - 09:35:07 10° SW 09:37:47 17° S 09:40:19 10° SE daylight
16 Nov - 11:23:12 10° SW 11:26:35 35° SSE 11:30:03 10° E daylight
16 Nov - 13:11:17 10° W 13:14:48 41° NNW 13:18:45 10° NE daylight
17 Nov - 02:07:11 10° N 02:11:23 16° NNE 02:15:14 10° ENE visible
17 Nov - 03:53:47 10° NW 04:00:33 49° NNE 04:06:00 10° E daylight
17 Nov - 05:43:24 10° W 05:49:22 54° SSW 05:54:06 10° SE daylight
17 Nov - 07:34:22 10° WSW 07:38:15 22° S 07:41:37 10° SE daylight
17 Nov - 09:24:27 10° SW 09:27:24 19° S 09:30:06 10° SE daylight
17 Nov - 11:12:35 10° SW 11:16:09 43° SSE 11:19:40 10° E daylight
17 Nov - 13:01:00 10° W 13:04:17 31° NNW 13:07:52 10° NE daylight
18 Nov - 01:55:24 10° NNW 02:00:40 20° NNE 02:05:27 10° ENE visible
18 Nov - 03:42:42 10° NW 03:49:51 60° NNE 03:55:37 10° ESE daylight
18 Nov - 05:32:39 10° W 05:38:45 48° SSW 05:43:38 10° SE daylight
18 Nov - 07:23:46 10° WSW 07:27:47 22° S 07:31:15 10° SE daylight
18 Nov - 09:13:44 10° SW 09:16:59 21° S 09:19:55 10° ESE daylight
18 Nov - 11:02:00 10° WSW 11:05:41 54° SSE 11:09:15 10° E daylight
18 Nov - 12:50:48 10° W 12:53:46 23° NNW 12:56:54 10° NNE daylight
19 Nov - 01:43:50 10° NNW 01:49:55 24° NNE 01:55:25 10° E visible
19 Nov - 03:31:39 10° WNW 03:39:07 71° NNE 03:45:11 10° ESE daylight
19 Nov - 05:21:55 10° W 05:28:08 44° SSW 05:33:09 10° SE daylight
19 Nov - 07:13:07 10° WSW 07:17:19 23° S 07:20:55 10° SE daylight
19 Nov - 09:03:00 10° SW 09:06:34 23° S 09:09:44 10° ESE daylight
19 Nov - 10:51:23 10° WSW 10:55:13 70° SSE 10:58:49 10° ENE daylight
19 Nov - 12:40:43 10° WNW 12:43:14 18° NNW 12:45:51 10° NNE daylight
20 Nov - 01:32:25 10° NNW 01:39:09 29° NNE 01:45:14 10° E visible
20 Nov - 03:20:41 10° WNW 03:28:23 82° NNE 03:34:41 10° ESE daylight
20 Nov - 05:11:11 10° W 05:17:31 41° SSW 05:22:40 10° SE daylight
20 Nov - 07:02:26 10° WSW 07:06:51 23° S 07:10:37 10° SE daylight
20 Nov - 08:52:13 10° SW 08:56:09 27° S 08:59:33 10° ESE daylight
20 Nov - 10:40:46 10° WSW 10:44:44 90° S 10:48:21 10° ENE daylight
20 Nov - 12:30:50 10° WNW 12:32:42 13° NNW 12:34:33 10° N daylight
21 Nov - 01:21:07 10° NNW 01:28:20 35° NNE 01:34:54 10° E visible
21 Nov - 03:09:44 10° WNW 03:17:37 88° SSW 03:24:10 10° ESE daylight
21 Nov - 05:00:28 10° W 05:06:55 38° SSW 05:12:11 10° SE daylight
21 Nov - 06:51:41 10° WSW 06:56:23 25° S 07:00:20 10° SE daylight
21 Nov - 08:41:24 10° SW 08:45:42 31° SSE 08:49:20 10° ESE daylight
21 Nov - 10:30:09 10° WSW 10:34:14 70° NNW 10:37:51 10° ENE daylight
21 Nov - 23:25:03 10° N 23:28:12 12° NNE 23:31:18 10° NE visible
22 Nov - 01:09:55 10° NW 01:17:30 41° NNE 01:24:28 10° E visible
22 Nov - 02:58:50 10° WNW 03:06:50 79° SSW 03:13:35 10° ESE daylight
22 Nov - 04:49:44 10° W 04:56:17 37° SSW 05:01:42 10° SE daylight
22 Nov - 06:40:54 10° WSW 06:45:54 26° S 06:50:04 10° SE daylight
22 Nov - 08:30:34 10° SW 08:35:14 37° SSE 08:39:07 10° E daylight
22 Nov - 10:19:33 10° WSW 10:23:42 54° NNW 10:27:19 10° NE daylight
22 Nov - 23:13:01 10° N 23:17:23 15° NNE 23:21:46 10° ENE visible
23 Nov - 00:58:47 10° NW 01:06:39 48° NNE 01:13:58 10° E visible
23 Nov - 02:47:58 10° WNW 02:56:03 71° SSW 03:02:59 10° ESE visible
23 Nov - 04:39:00 10° WSW 04:45:40 36° SSW 04:51:13 10° SE daylight
23 Nov - 06:30:05 10° WSW 06:35:24 28° S 06:39:50 10° ESE daylight
23 Nov - 08:19:43 10° SW 08:24:45 44° SSE 08:28:51 10° E daylight
23 Nov - 10:08:58 10° W 10:13:08 42° NNW 10:16:44 10° NE daylight
23 Nov - 23:01:21 10° N 23:06:33 18° NNE 23:11:49 10° ENE visible
24 Nov - 00:47:44 10° NW 00:55:46 55° NNE 01:03:23 10° ESE visible
24 Nov - 02:37:09 10° WNW 02:45:17 64° SSW 02:52:21 10° ESE visible
24 Nov - 04:28:16 10° WSW 04:35:03 35° S 04:40:45 10° SE daylight
24 Nov - 06:19:14 10° WSW 06:24:54 30° S 06:29:34 10° ESE daylight
24 Nov - 08:08:51 10° WSW 08:14:15 53° SSE 08:18:33 10° E daylight
24 Nov - 09:58:25 10° W 10:02:33 34° NNW 10:06:05 10° NE daylight
24 Nov - 22:49:55 10° NNW 22:55:42 22° NE 23:01:37 10° E visible
